Location: Pian di Sc�
(43.6333°N, 11.5500°E)
Time: 18:26:04
(UTC+00:00)

SL-14 R/B - Pass Details

Date: 07 August 2020
Orbit: 517 x 555 km, 82.4° (Epoch: 19 September)

Event Time Altitude Azimuth Distance (km) Brightness Sun altitude
Rises 01:22:18 0° 356° (N) 2,699 7.7 -23.8°
Reaches altitude 10° 01:24:31 10° 1° (N) 1,796 6.7 -23.6°
Maximum altitude 01:28:23 53° 79° (E) 656 3.8 -23.2°
Enters shadow 01:28:58 47° 113° (ESE) 704 3.8 -23.1°
